Погода в Сарасоте

США     27°20′10″N   82°31′52″W
темп.,
°C
ветер,
м/с
пор.,
м/с
влажн.,
%
обл.,
%
осадки,
мм/ч
давл.,
гПа
погр.,
м
16 октября, сб
сб1623:00+28с346781 0.1 1014425
02:00+25в357930 0.1 1013221
05:00+24всв338524 0.0 1013152
08:00+24ссв22821 0.0 1015151
11:00+28с23623 0.0 1015686
14:00+29зсз55590 0.0 10131024
17:00+28зсз55632 0.0 1012717
20:00+27сз45670 0.0 1014484
17 октября, вс
вс1723:00+27сз4569100 0.0 1015473
02:00+27ссз4672100 0.3 1014520
05:00+26с467736 0.3 1013491
08:00+23ссв6875100 0.3 1015449
11:00+24ссв56567 0.0 1017591
14:00+27ссв44520 0.0 10151087
17:00+28с55503 0.0 10141452
20:00+26ссв45560 0.0 1015884
18 октября, пн
пн1823:00+23св710640 0.0 1018566
02:00+21св7116850 0.0 1017467
05:00+20св7126999 0.0 1017462
08:00+20св6127030 0.0 1018454
11:00+24всв78597 0.0 1019850
14:00+27всв56445 0.0 10171473
17:00+27всв66445 0.0 10161715
20:00+24всв69585 0.0 1017681
19 октября, вт
вт1923:00+22в6106596 0.0 1019531
02:00+21всв5870100 0.0 1019329
05:00+20всв58710 0.0 1019262
08:00+20всв597273 0.0 1020269
11:00+25всв685519 0.0 10211150
14:00+28в67450 0.0 10191670
17:00+28в66465 0.0 10181897
20:00+25в59570 0.0 1019636
20 октября, ср
ср2023:00+22в510690 0.0 1021461
02:00+22в48685 0.0 1020307
05:00+22в4775100 0.0 1020254
08:00+21всв4778100 0.0 1021228
11:00+26в68565 0.0 10221078
14:00+29в66480 0.0 10201767
17:00+29всв66498 0.0 10181283
20:00+25всв61062100 0.0 1020488